EW8073 Weather Reports


time (UTC)temp
F
wind
direction
speed
knots
gust
knots
rain 1hr
in
rain 24hr
in
rain mn
in
humidity
%
barometer
mb
20260509033359 60 67 0.0 0.0 0.00 0.00 0.00 48 1013.1
20260509031841 61 66 0.0 0.0 0.00 0.00 0.00 46 1013.0
20260509031335 61 66 0.0 0.0 0.00 0.00 0.00 46 1013.0
20260509030829 61 66 0.0 0.0 0.00 0.00 0.00 46 1013.0
20260509030325 62 66 0.0 0.0 0.00 0.00 0.00 45 1013.0
20260509025817 62 66 0.0 0.0 0.00 0.00 0.00 45 1012.9
20260509025312 62 66 0.0 0.0 0.00 0.00 0.00 44 1012.7
20260509024301 62 66 0.0 0.0 0.00 0.00 0.00 43 1012.7
20260509023800 63 66 0.0 0.0 0.00 0.00 0.00 43 1012.7
20260509023259 63 66 0.0 0.0 0.00 0.00 0.00 42 1012.6
20260509022259 64 65 0.0 0.0 0.00 0.00 0.00 42 1012.5
20260509021759 64 66 0.0 0.0 0.00 0.00 0.00 42 1012.5
20260509020757 65 65 0.0 0.0 0.00 0.00 0.00 41 1012.4
20260509020254 65 65 0.0 0.0 0.00 0.00 0.00 40 1012.4
20260509015251 65 65 0.0 0.0 0.00 0.00 0.00 39 1012.3
20260509014750 66 65 0.0 0.0 0.00 0.00 0.00 39 1012.3
20260509014249 66 65 0.0 0.0 0.00 0.00 0.00 39 1012.3
20260509013747 66 67 0.0 0.0 0.00 0.00 0.00 39 1012.3
20260509013245 67 67 0.0 0.0 0.00 0.00 0.00 38 1012.2
20260509012745 67 67 0.0 0.0 0.00 0.00 0.00 37 1012.2
20260509012244 67 64 0.0 0.0 0.00 0.00 0.00 38 1012.2
20260509011741 67 65 0.0 0.0 0.00 0.00 0.00 37 1012.2
20260509011240 67 65 0.0 0.0 0.00 0.00 0.00 38 1012.2
20260509010740 67 65 0.0 0.0 0.00 0.00 0.00 37 1012.2
20260509010241 68 65 0.0 0.0 0.00 0.00 0.00 37 1012.2
20260509005740 68 65 0.0 0.0 0.00 0.00 0.00 37 1012.0
20260509005244 68 64 0.0 0.0 0.00 0.00 0.00 37 1012.2
20260509004743 68 63 0.0 0.0 0.00 0.00 0.00 36 1012.0
20260509003743 69 63 0.0 0.0 0.00 0.00 0.00 36 1012.0
20260509003241 69 63 0.0 0.0 0.00 0.00 0.00 36 1012.0
20260509002240 69 61 0.0 0.0 0.00 0.00 0.00 34 1012.0
20260509001740 70 61 0.0 0.0 0.00 0.00 0.00 35 1012.0
20260509000741 71 59 0.0 0.0 0.00 0.00 0.00 34 1012.0
20260508235740 71 58 0.0 1.7 0.00 0.00 0.00 34 1012.2
20260508235240 71 58 0.9 2.6 0.00 0.00 0.00 34 1012.2
20260508234741 71 59 0.9 3.5 0.00 0.00 0.00 33 1012.2
20260508234240 71 61 0.9 4.3 0.00 0.00 0.00 33 1012.3
20260508233740 71 49 0.9 4.3 0.00 0.00 0.00 35 1012.3
20260508233240 71 79 0.9 3.5 0.00 0.00 0.00 34 1012.3
20260508232741 71 88 0.9 2.6 0.00 0.00 0.00 34 1012.3
20260508232240 72 88 0.9 2.6 0.00 0.00 0.00 35 1012.3
20260508231741 72 88 0.9 2.6 0.00 0.00 0.00 34 1012.2
20260508231238 73 89 0.9 5.2 0.00 0.00 0.00 34 1012.3
20260508224724 72 271 0.0 0.0 0.00 0.00 0.00 35 1012.2
20260508224218 72 271 0.0 0.0 0.00 0.00 0.00 34 1012.3
20260508223715 73 271 0.0 0.0 0.00 0.00 0.00 34 1012.4
20260508223214 74 281 0.0 0.0 0.00 0.00 0.00 33 1012.4
20260508222714 72 281 0.0 2.6 0.00 0.00 0.00 36 1012.4
20260508222212 72 281 0.9 3.5 0.00 0.00 0.00 35 1012.4
20260508221712 71 280 1.7 3.5 0.00 0.00 0.00 33 1012.5
20260508221211 72 280 1.7 5.2 0.00 0.00 0.00 34 1012.6
20260508220710 72 13 1.7 5.2 0.00 0.00 0.00 34 1012.6
20260508220211 72 63 1.7 4.3 0.00 0.00 0.00 35 1012.6
20260508215209 73 88 0.0 2.6 0.00 0.00 0.00 35 1012.7
20260508214708 73 62 0.9 3.5 0.00 0.00 0.00 35 1012.7
20260508213206 74 243 0.0 1.7 0.00 0.00 0.00 33 1012.7
20260508212707 74 340 0.0 1.7 0.00 0.00 0.00 33 1012.9
20260508212206 72 340 0.0 1.7 0.00 0.00 0.00 35 1013.0
20260508211706 72 338 0.9 5.2 0.00 0.00 0.00 36 1013.1
20260508211204 71 336 1.7 6.1 0.00 0.00 0.00 35 1013.1
20260508210703 71 92 0.9 6.1 0.00 0.00 0.00 38 1013.1
20260508210158 72 305 0.9 3.5 0.00 0.00 0.00 36 1013.2
20260508205652 73 225 0.9 3.5 0.00 0.00 0.00 35 1013.3
20260508205145 73 155 0.9 3.5 0.00 0.00 0.00 38 1013.3
20260508204133 71 76 1.7 4.3 0.00 0.00 0.00 38 1013.4
20260508203627 71 90 1.7 4.3 0.00 0.00 0.00 39 1013.4
20260508203121 70 79 1.7 3.5 0.00 0.00 0.00 38 1013.6
20260508202616 70 317 1.7 4.3 0.00 0.00 0.00 38 1013.6
20260508202109 70 307 0.9 4.3 0.00 0.00 0.00 37 1013.6
20260508201603 69 71 0.9 4.3 0.00 0.00 0.00 39 1013.6
20260508201058 69 71 1.7 4.3 0.00 0.00 0.00 40 1013.7
20260508200552 69 67 1.7 4.3 0.00 0.00 0.00 41 1013.8
20260508200046 69 323 1.7 4.3 0.00 0.00 0.00 39 1013.9
20260508195540 69 346 1.7 4.3 0.00 0.00 0.00 40 1013.9
20260508195034 68 114 1.7 3.5 0.00 0.00 0.00 41 1013.9
20260508194527 67 107 1.7 7.8 0.00 0.00 0.00 42 1013.9
20260508194022 68 37 1.7 7.8 0.00 0.00 0.00 40 1014.1
20260508193516 68 96 0.9 2.6 0.00 0.00 0.00 42 1014.0
20260508193009 67 77 1.7 5.2 0.00 0.00 0.00 44 1014.1
20260508192503 67 76 1.7 5.2 0.00 0.00 0.00 42 1014.3
20260508191958 68 57 0.9 3.5 0.00 0.00 0.00 44 1014.3
20260508191451 67 205 0.9 3.5 0.00 0.00 0.00 43 1014.3
20260508190945 67 15 1.7 3.5 0.00 0.00 0.00 44 1014.3
20260508190439 67 12 1.7 5.2 0.00 0.00 0.00 44 1014.4
20260508185933 67 355 1.7 7.0 0.00 0.00 0.00 44 1014.4
20260508185428 67 72 1.7 7.0 0.00 0.00 0.00 46 1014.5
20260508184921 66 74 1.7 3.5 0.00 0.00 0.00 45 1014.5
20260508184416 66 75 1.7 3.5 0.00 0.00 0.00 44 1014.6
20260508183911 65 84 1.7 4.3 0.00 0.00 0.00 46 1014.6
20260508182858 65 76 1.7 4.3 0.00 0.00 0.00 48 1014.7
20260508181340 64 120 1.7 4.3 0.00 0.00 0.00 49 1015.1
20260508180833 64 49 1.7 7.0 0.00 0.00 0.00 49 1015.1
20260508180327 64 86 1.7 7.0 0.00 0.00 0.00 49 1015.1
20260508174820 63 16 1.7 6.1 0.00 0.00 0.00 49 1015.2
20260508174320 63 5 1.7 6.1 0.00 0.00 0.00 50 1015.2
20260508173820 62 58 1.7 6.1 0.00 0.00 0.00 51 1015.2
20260508172820 62 296 1.7 7.0 0.00 0.00 0.00 50 1015.4
20260508172322 62 355 1.7 4.3 0.00 0.00 0.00 49 1015.4
20260508171817 62 311 1.7 5.2 0.00 0.00 0.00 51 1015.4
20260508171316 62 44 1.7 5.2 0.00 0.00 0.00 50 1015.5
20260508170814 61 28 1.7 6.1 0.00 0.00 0.00 51 1015.7
20260508170313 61 310 1.7 6.1 0.00 0.00 0.00 50 1015.7
20260508165314 60 350 1.7 4.3 0.00 0.00 0.00 51 1015.8
20260508164813 60 10 1.7 5.2 0.00 0.00 0.00 52 1015.8
20260508164314 60 291 1.7 5.2 0.00 0.00 0.00 52 1015.7
20260508163812 60 267 1.7 4.3 0.00 0.00 0.00 53 1015.7
20260508163311 59 5 1.7 4.3 0.00 0.00 0.00 54 1015.7
20260508162808 59 234 0.9 2.6 0.00 0.00 0.00 54 1015.7
20260508162307 59 243 0.9 2.6 0.00 0.00 0.00 55 1015.7
20260508161807 58 242 0.9 2.6 0.00 0.00 0.00 55 1015.7
20260508160806 58 238 0.0 3.5 0.00 0.00 0.00 58 1015.8
20260508160302 58 239 0.9 3.5 0.00 0.00 0.00 59 1015.8
20260508155803 58 239 0.9 2.6 0.00 0.00 0.00 60 1015.9
20260508155305 57 239 0.9 4.3 0.00 0.00 0.00 61 1015.9
20260508154803 56 240 0.9 4.3 0.00 0.00 0.00 62 1015.9
20260508154301 56 240 0.0 3.5 0.00 0.00 0.00 65 1015.9
20260508153803 56 239 0.0 1.7 0.00 0.00 0.00 67 1015.9
20260508153258 55 239 0.0 1.7 0.00 0.00 0.00 69 1016.0
20260508152759 55 239 0.0 2.6 0.00 0.00 0.00 69 1016.0
20260508152257 54 239 0.9 2.6 0.00 0.00 0.00 70 1015.9
20260508151759 54 239 0.9 2.6 0.00 0.00 0.00 71 1015.9
20260508151257 54 239 0.9 3.5 0.00 0.00 0.00 73 1015.9
20260508150759 53 240 0.9 3.5 0.00 0.00 0.00 74 1015.9
20260508150258 53 235 0.9 7.8 0.00 0.00 0.00 77 1015.9
20260508145759 53 234 0.9 7.8 0.00 0.00 0.00 79 1016.0
20260508144754 52 236 0.0 0.0 0.00 0.00 0.00 82 1016.1
20260508143753 51 237 0.9 3.5 0.00 0.00 0.00 84 1016.1
20260508143254 51 238 0.0 3.5 0.00 0.00 0.00 84 1016.1
20260508142753 50 235 0.9 3.5 0.00 0.00 0.00 85 1016.1
20260508142251 50 234 0.9 3.5 0.00 0.00 0.00 86 1016.1
20260508141751 50 229 0.0 3.5 0.00 0.00 0.00 86 1016.1
20260508141251 50 227 0.0 3.5 0.00 0.00 0.00 87 1016.0
20260508140252 49 238 0.0 2.6 0.00 0.00 0.00 87 1016.1
20260508135752 48 254 0.0 0.9 0.00 0.00 0.00 88 1016.2
20260508135245 48 255 0.0 2.6 0.00 0.00 0.00 88 1016.5
20260508134739 48 255 0.0 2.6 0.00 0.00 0.00 88 1016.4
20260508134233 47 53 0.0 1.7 0.00 0.00 0.00 88 1016.4
20260508133728 47 53 0.0 0.9 0.00 0.00 0.00 88 1016.5
20260508133218 46 53 0.0 0.0 0.00 0.00 0.00 88 1016.5
20260508132717 46 0 0.0 0.0 0.00 0.00 0.00 88 1016.5
20260508132210 46 53 0.0 0.0 0.00 0.00 0.00 87 1016.5
20260508131703 45 53 0.0 0.0 0.00 0.00 0.00 87 1016.4
20260508130146 45 53 0.0 0.0 0.00 0.00 0.00 87 1016.4
20260508125641 44 53 0.0 0.0 0.00 0.00 0.00 87 1016.4
20260508125133 44 53 0.0 0.0 0.00 0.00 0.00 87 1016.5
20260508124628 44 53 0.0 0.0 0.00 0.00 0.00 87 1016.5
20260508124122 44 53 0.0 0.0 0.00 0.00 0.00 87 1016.5
20260508123616 44 53 0.0 0.0 0.00 0.00 0.00 86 1016.6
20260508123110 43 53 0.0 0.0 0.00 0.00 0.00 86 1016.5
20260508122604 43 53 0.0 0.0 0.00 0.00 0.00 86 1016.4
20260508122058 43 53 0.0 0.0 0.00 0.00 0.00 86 1016.2
20260508121553 43 53 0.0 0.0 0.00 0.00 0.00 85 1016.0
20260508121045 42 53 0.0 0.0 0.00 0.00 0.00 85 1016.0
20260508120033 42 53 0.0 0.0 0.00 0.00 0.00 85 1015.5
20260508115527 42 53 0.0 0.0 0.00 0.00 0.00 85 1015.4
20260508115021 42 53 0.0 0.0 0.00 0.00 0.00 85 1015.3
20260508114515 42 53 0.0 0.0 0.00 0.00 0.00 84 1015.1
20260508114009 42 53 0.0 0.0 0.00 0.00 0.00 84 1015.1
20260508113504 42 53 0.0 0.0 0.00 0.00 0.00 84 1015.1
20260508112959 42 53 0.0 0.0 0.00 0.00 0.00 84 1015.1
20260508112451 42 53 0.0 0.0 0.00 0.00 0.00 84 1015.0
20260508111945 43 53 0.0 0.0 0.00 0.00 0.00 84 1014.7
20260508111439 43 53 0.0 0.0 0.00 0.00 0.00 84 1014.8
20260508110934 43 53 0.0 0.0 0.00 0.00 0.00 84 1014.7
20260508110429 43 53 0.0 0.0 0.00 0.00 0.00 84 1014.7
20260508105921 43 53 0.0 0.0 0.00 0.00 0.00 84 1015.0
20260508105415 43 53 0.0 0.0 0.00 0.00 0.00 84 1015.0
20260508104909 43 53 0.0 0.0 0.00 0.00 0.00 84 1014.7
20260508104403 43 53 0.0 0.0 0.00 0.00 0.00 84 1014.8
20260508103858 43 53 0.0 0.0 0.00 0.00 0.00 84 1015.0
20260508103353 44 53 0.0 0.0 0.00 0.00 0.00 84 1014.7
20260508102845 44 53 0.0 0.0 0.00 0.00 0.00 84 1014.7
20260508102339 44 53 0.0 0.0 0.00 0.00 0.00 84 1014.8
20260508101833 44 53 0.0 0.0 0.00 0.00 0.00 84 1014.7
20260508101328 44 53 0.0 0.0 0.00 0.00 0.00 84 1015.0
20260508100820 44 53 0.0 0.0 0.00 0.00 0.00 84 1014.8
20260508100319 44 53 0.0 0.0 0.00 0.00 0.00 83 1014.6
20260508095805 45 53 0.0 0.9 0.00 0.00 0.00 83 1014.0
20260508095259 45 53 0.0 0.9 0.00 0.00 0.00 83 1013.9
20260508094754 45 53 0.0 0.9 0.00 0.00 0.00 83 1013.7
20260508092225 46 53 0.0 0.0 0.00 0.00 0.00 81 1013.8
20260508091717 46 53 0.0 0.0 0.00 0.00 0.00 81 1013.9
20260508091211 46 53 0.0 0.0 0.00 0.00 0.00 81 1013.8
20260508090705 46 53 0.0 0.0 0.00 0.00 0.00 81 1013.9
20260508090200 46 53 0.0 0.0 0.00 0.00 0.00 81 1013.9
20260508085652 46 53 0.0 0.0 0.00 0.00 0.00 81 1013.9
20260508085144 47 53 0.0 0.0 0.00 0.00 0.00 81 1014.0
20260508084638 47 53 0.0 0.0 0.00 0.00 0.00 80 1014.1
20260508084133 47 53 0.0 0.9 0.00 0.00 0.00 80 1014.4
20260508083626 47 53 0.0 0.9 0.00 0.00 0.00 80 1014.3
20260508083129 47 53 0.0 0.0 0.00 0.00 0.00 79 1014.5
20260508081603 48 53 0.0 0.0 0.00 0.00 0.00 79 1014.8
20260508081055 48 53 0.0 0.0 0.00 0.00 0.00 79 1014.8
20260508080549 48 53 0.0 0.0 0.00 0.00 0.00 78 1015.0
20260508080043 49 53 0.0 0.0 0.00 0.00 0.00 78 1015.0
20260508075537 49 53 0.0 0.0 0.00 0.00 0.00 77 1015.0
20260508075033 49 53 0.0 0.0 0.00 0.00 0.00 77 1014.8
20260508074526 49 53 0.0 0.0 0.00 0.00 0.00 77 1014.7
20260508074019 50 53 0.0 0.0 0.00 0.00 0.00 76 1014.8
20260508073513 50 53 0.0 0.0 0.00 0.00 0.00 76 1014.7
20260508073009 50 53 0.0 0.0 0.00 0.00 0.00 76 1014.8
20260508072502 50 53 0.0 0.0 0.00 0.00 0.00 75 1015.0
20260508071954 51 53 0.0 0.0 0.00 0.00 0.00 75 1014.8
20260508070940 51 53 0.0 0.0 0.00 0.00 0.00 74 1014.6
20260508070435 52 53 0.0 0.0 0.00 0.00 0.00 74 1014.5
20260508065929 52 53 0.0 0.0 0.00 0.00 0.00 73 1014.4
20260508065423 52 53 0.0 0.0 0.00 0.00 0.00 72 1014.3
20260508064916 52 53 0.0 0.0 0.00 0.00 0.00 72 1014.1
20260508064411 53 53 0.0 0.0 0.00 0.00 0.00 72 1014.1
20260508063910 53 53 0.0 0.0 0.00 0.00 0.00 71 1014.1
20260508062909 53 53 0.0 2.6 0.00 0.00 0.00 70 1014.1
20260508062409 53 52 0.0 0.0 0.00 0.00 0.00 69 1014.3
20260508061908 54 52 0.0 0.0 0.00 0.00 0.00 68 1014.1
20260508060909 54 0 0.0 0.0 0.00 0.00 0.00 67 1014.3
20260508060409 53 0 0.0 2.6 0.00 0.00 0.00 66 1014.8
20260508055912 54 0 0.0 2.6 0.00 0.00 0.00 65 1015.5
20260508054353 54 0 0.0 0.0 0.00 0.00 0.00 63 1014.5
20260508052330 54 0 0.0 0.0 0.00 0.00 0.00 63 1013.8
20260508051823 54 101 0.0 0.0 0.00 0.00 0.00 63 1013.6
20260508051317 54 101 0.0 0.0 0.00 0.00 0.00 62 1013.6
20260508050811 54 101 0.0 1.7 0.00 0.00 0.00 62 1013.4
20260508050306 54 101 0.0 1.7 0.00 0.00 0.00 62 1013.7
20260508045253 55 101 0.0 0.0 0.00 0.00 0.00 61 1013.6
20260508044747 55 101 0.0 0.0 0.00 0.00 0.00 61 1013.6
20260508044241 55 101 0.0 0.0 0.00 0.00 0.00 61 1013.8
20260508043737 55 101 0.0 0.0 0.00 0.00 0.00 60 1013.7
20260508043230 55 101 0.0 0.0 0.00 0.00 0.00 60 1013.7
20260508042723 55 101 0.0 0.0 0.00 0.00 0.00 59 1014.0
20260508042218 56 101 0.0 0.0 0.00 0.00 0.00 59 1014.1
20260508041711 56 101 0.0 0.0 0.00 0.00 0.00 58 1014.0
20260508041206 56 101 0.0 0.0 0.00 0.00 0.00 58 1013.7
20260508040700 56 102 0.0 0.0 0.00 0.00 0.00 57 1013.6
20260508040154 57 102 0.0 0.0 0.00 0.00 0.00 57 1013.3
20260508034636 58 102 0.0 0.9 0.00 0.00 0.00 54 1013.3
20260508034130 58 101 0.0 0.9 0.00 0.00 0.00 53 1013.6
20260508033624 58 101 0.0 0.0 0.00 0.00 0.00 53 1013.6